Wind_Speed
10 11 11 10 9 12 6 2 4 4 2 1 2 3 2 0 1 1 1 1 1 1 1 1 3 3 3 4 6 8 10 12 12 12 12 11 10 9 9 9 9 9 9 10 11 12 12 11 9
9 9 9 8 8 10 3 4 4 4 3 2 2 3 2 2 2 3 3 3 2 1 1 2 3 4 4 6 8 10 11 12 12 12 11 12 11 11 10 10 9 9 9 10 12 13 12 10 9
6 5 6 4 9 3 2 5 5 5 5 5 6 5 4 4 4 4 4 4 3 2 2 3 4 5 5 6 8 10 11 11 12 12 11 12 12 11 11 10 10 10 10 11 13 14 13 10 9
4 4 5 9 9 6 6 8 6 5 5 7 8 7 8 7 7 6 5 4 3 3 4 5 6 6 7 7 9 10 11 12 12 12 12 12 12 12 12 12 11 12 12 13 13 13 12 11 9
4 5 5 8 6 6 11 11 8 8 9 9 10 9 9 9 8 8 6 5 4 4 4 5 6 6 7 8 9 11 13 14 14 14 14 14 14 14 14 14 14 14 14 14 13 13 12 11 10
5 6 6 5 11 5 9 11 9 9 9 9 11 9 10 8 8 7 5 4 2 3 4 5 7 8 10 11 13 14 15 16 17 17 17 17 17 17 18 18 18 18 17 17 15 14 13 13 12
9 8 5 1 13 8 8 10 9 10 11 9 8 10 10 9 7 6 5 3 3 4 6 7 9 11 12 14 15 17 18 19 19 19 19 19 20 21 21 22 21 21 21 20 19 18 17 16 16
13 10 6 1 12 16 15 9 9 14 17 12 11 13 10 9 8 6 6 6 7 8 10 12 14 15 17 18 19 20 21 22 22 23 23 23 24 24 25 26 26 25 25 24 23 22 21 21 21
14 13 6 4 13 15 16 11 9 11 16 18 17 18 12 10 10 9 9 11 13 14 15 17 18 20 21 23 23 23 24 24 26 27 28 28 28 29 30 30 30 30 30 30 29 28 27 26 26
17 16 8 11 15 14 14 13 13 12 14 19 21 18 10 12 13 14 15 16 17 19 20 21 21 24 25 25 26 27 27 27 27 28 29 31 32 32 33 33 34 34 34 34 34 33 32 31 31
19 20 18 19 21 23 22 16 13 11 17 25 29 22 12 13 17 19 19 20 21 23 25 26 27 28 29 29 28 29 30 29 29 30 30 31 32 33 34 34 35 36 36 36 36 37 36 36 35
23 24 26 27 26 24 23 20 15 12 21 30 34 28 15 16 22 24 24 23 23 25 27 29 31 32 32 32 32 32 31 31 30 30 30 30 30 31 32 33 34 35 36 36 37 37 38 38 38
25 25 28 29 29 28 26 25 22 18 21 28 30 27 20 22 27 29 29 28 28 28 31 32 34 34 35 34 33 33 32 31 31 30 30 30 30 30 30 30 31 32 33 35 35 36 37 37 37
25 27 29 29 27 26 26 25 24 21 21 29 32 31 30 32 31 31 32 32 32 33 34 36 36 36 36 35 33 32 31 31 32 32 31 31 30 30 29 29 29 29 29 29 29 29 29 30 30
25 27 28 27 26 24 24 25 24 20 20 30 33 33 34 34 33 35 35 35 37 38 38 39 39 37 36 34 32 32 32 33 32 32 31 31 30 30 29 28 27 27 27 26 26 26 27 28 29
22 23 25 24 23 22 25 28 22 17 22 31 34 36 37 34 36 39 40 41 43 42 42 41 40 36 34 33 33 34 34 33 32 32 32 31 31 30 28 27 26 25 24 25 25 26 27 27 28
12 17 17 16 16 20 25 26 21 19 26 30 34 38 39 37 39 43 45 46 49 46 43 40 39 36 35 34 34 34 34 33 32 32 32 31 30 28 27 26 24 22 22 22 22 23 24 25 26
10 10 11 11 12 20 22 20 18 24 31 34 38 41 43 42 42 46 49 49 49 47 42 38 37 37 36 34 34 34 34 32 31 30 30 29 28 26 24 23 21 20 19 18 18 18 19 21 23
16 14 14 13 16 21 25 23 22 27 32 36 40 42 43 43 46 49 51 50 47 44 40 38 37 37 37 35 35 35 33 31 30 30 29 28 26 24 21 19 17 16 15 15 15 16 17 19 22
5 8 10 14 19 23 26 28 25 26 30 36 37 37 38 41 43 46 48 47 43 42 39 38 37 36 36 36 36 35 33 31 30 29 27 26 23 20 18 17 16 15 15 16 16 16 17 20 22
7 10 13 15 17 19 20 20 17 19 24 30 32 33 34 38 40 42 42 37 34 32 31 34 35 36 36 36 36 34 32 31 29 27 25 23 21 19 18 19 19 19 19 18 18 17 18 19 22
9 13 15 17 18 17 15 15 15 18 22 28 31 33 35 36 38 40 34 27 26 23 22 26 31 34 36 36 35 33 31 29 28 25 23 22 21 21 21 22 22 22 22 21 20 20 20 21 22
11 12 13 11 11 10 10 11 15 20 24 28 29 32 37 38 40 39 37 33 30 33 33 30 32 34 35 35 34 32 30 28 27 25 24 23 23 23 24 25 25 24 24 24 23 23 23 23 24
10 8 6 11 14 18 20 14 16 20 24 28 30 33 35 36 36 36 37 37 35 37 36 37 36 35 34 34 32 31 29 28 27 27 27 27 27 27 27 28 28 28 27 27 26 25 26 26 26
9 8 8 12 21 23 16 7 17 20 22 25 28 30 33 35 36 36 36 36 37 38 39 39 38 36 35 35 35 34 31 30 29 30 30 31 32 32 31 31 31 31 31 29 29 28 28 28 28
8 7 9 13 15 18 19 19 23 25 26 26 28 31 34 37 39 40 40 41 41 42 43 43 42 41 41 40 40 40 38 36 35 35 34 35 36 36 36 35 34 34 34 33 32 31 31 30 29
10 9 10 14 13 13 18 28 30 29 27 27 29 35 39 40 42 43 44 46 47 48 48 49 49 49 48 48 47 47 46 45 44 43 42 41 40 40 40 39 39 39 38 38 36 34 33 32 31
15 15 15 16 16 17 17 29 33 33 34 35 37 39 41 43 45 46 48 50 51 53 54 54 55 56 56 56 55 55 54 53 53 52 51 50 48 47 45 43 43 42 41 41 39 37 35 34 33
16 17 19 19 19 21 22 29 32 34 37 39 40 42 44 45 47 49 52 54 55 56 58 59 59 60 61 61 61 61 61 61 61 60 59 58 56 54 52 49 47 44 43 43 41 39 38 36 35
16 20 23 25 24 23 24 31 31 34 37 40 43 46 48 49 51 53 55 57 58 60 61 62 63 64 64 65 65 66 66 66 66 65 65 64 63 61 57 54 52 50 47 45 44 42 40 39 37
Wind_Direction
96 90 88 89 88 79 90 200 238 289 269 178 163 197 198 79 14 160 165 141 134 114 135 250 263 267 276 291 303 311 318 323 325 326 330 334 337 340 348 356 2 8 11 8 4 358 352 344 341
102 96 96 88 80 106 130 276 303 321 311 270 223 233 207 196 175 164 178 168 167 184 209 246 251 257 271 286 296 303 310 317 320 318 317 323 328 330 334 341 347 350 351 348 345 344 342 334 326
113 107 94 56 36 99 129 305 331 328 305 289 275 277 257 246 223 208 215 198 200 224 248 261 260 262 273 286 296 302 308 313 317 316 314 316 320 323 325 328 332 335 335 335 334 334 335 331 321
135 118 97 46 355 339 321 309 318 317 314 303 288 281 273 268 251 251 248 245 253 266 278 285 286 288 293 299 304 307 309 312 313 312 311 310 311 313 316 319 321 323 325 327 329 331 333 334 326
183 146 112 37 288 284 292 293 303 311 322 305 298 294 283 280 274 270 270 276 291 309 321 321 320 319 319 317 316 314 311 310 308 306 304 303 303 304 306 310 314 315 318 321 325 329 331 331 329
215 190 111 348 279 250 282 291 301 311 307 293 291 294 292 285 282 283 281 288 310 335 336 335 330 327 325 323 320 316 312 309 304 301 298 297 298 300 301 304 307 309 311 313 315 318 321 322 322
236 224 167 39 297 281 255 281 291 282 268 219 276 295 292 285 286 289 287 292 311 322 318 319 320 320 321 319 315 310 307 304 302 298 294 293 293 295 296 297 298 300 302 304 305 307 307 308 309
243 235 204 156 277 271 260 230 247 266 272 277 304 291 278 280 279 280 284 295 303 309 313 315 317 318 319 318 313 307 302 298 295 293 291 288 288 289 289 290 291 292 293 293 294 295 296 297 297
243 235 211 284 267 258 260 257 262 266 287 301 295 284 278 271 272 276 284 294 302 307 312 317 320 320 320 319 316 310 303 298 293 289 287 285 284 284 284 285 286 287 287 287 287 287 286 287 287
239 229 212 260 250 240 254 264 280 298 296 284 269 260 263 277 282 285 290 296 304 308 312 316 317 318 318 317 315 310 305 300 294 290 286 284 282 280 280 280 282 283 283 283 283 282 281 280 280
239 228 215 235 241 241 245 262 277 283 275 270 264 252 259 288 293 292 294 297 303 309 313 315 315 316 314 312 311 308 304 301 297 294 291 286 282 278 277 277 277 279 280 281 281 281 279 277 276
244 234 228 237 243 249 251 250 250 254 266 268 268 279 281 295 296 293 292 293 299 305 309 311 313 315 313 312 310 308 305 301 298 296 293 290 286 282 280 279 278 277 277 277 277 278 279 278 276
250 245 241 244 249 254 258 257 253 248 266 278 281 285 289 292 293 293 292 292 295 300 304 307 310 310 310 309 307 306 306 304 301 298 297 295 293 289 286 282 281 279 278 276 275 276 279 281 282
257 250 246 247 250 254 258 260 258 256 260 274 277 280 284 288 289 287 288 291 294 298 300 303 305 305 305 304 304 305 305 304 301 299 297 295 294 292 288 286 285 283 284 284 284 286 288 289 290
264 261 259 255 254 258 262 261 259 259 255 264 271 274 277 282 281 284 286 289 293 294 296 298 299 300 299 299 301 303 304 303 301 299 296 295 294 292 290 287 285 284 284 284 288 289 291 292 292
271 269 263 258 257 258 258 257 256 260 258 257 263 269 275 278 280 284 287 288 289 289 291 293 293 293 294 296 298 301 302 301 299 296 295 294 293 292 290 286 284 283 283 284 285 287 289 290 291
301 295 285 270 257 249 253 262 260 255 255 253 260 268 275 278 281 284 285 286 285 285 285 286 287 287 289 292 298 301 302 300 296 294 294 293 291 289 286 283 283 282 282 284 286 289 293 294 296
258 257 270 271 244 247 254 256 255 253 250 254 261 269 277 281 282 282 282 280 279 279 279 279 280 284 288 293 298 300 300 298 295 294 293 291 288 285 281 280 281 280 282 285 289 294 299 303 304
241 227 225 228 232 247 255 255 253 260 261 263 269 275 279 280 280 278 276 272 267 268 269 271 275 281 286 293 297 299 298 296 295 294 291 288 284 280 277 275 275 277 281 286 291 298 305 310 314
278 267 261 250 241 248 260 272 264 258 269 272 276 278 278 276 275 270 264 257 254 260 261 264 272 280 286 292 296 298 297 295 293 292 288 282 277 272 269 271 273 275 278 283 289 299 307 313 318
276 264 250 253 253 254 271 286 289 272 263 272 278 278 274 271 267 265 250 245 249 253 253 262 271 278 285 292 295 295 295 293 291 287 282 274 268 265 267 271 273 274 274 278 283 291 301 309 315
272 270 261 263 269 269 265 273 279 272 267 269 274 277 276 276 272 272 273 265 270 276 286 281 283 285 288 289 292 293 291 290 288 284 278 268 262 263 268 272 275 275 274 276 280 286 295 303 309
278 271 274 282 283 269 255 258 257 258 263 274 281 284 287 290 292 291 294 304 301 300 302 299 293 291 291 290 289 290 290 289 285 280 274 267 262 263 268 272 274 274 274 276 281 287 293 298 303
313 306 304 304 289 272 251 228 252 273 282 284 288 291 293 295 295 296 299 303 303 301 298 301 299 293 290 290 289 288 287 287 285 281 274 269 266 265 267 270 273 273 273 276 280 285 290 294 298
311 317 320 315 319 328 327 287 258 281 288 291 295 298 299 300 300 301 301 300 298 296 295 295 295 294 291 289 288 286 284 283 282 279 277 275 272 271 271 272 273 273 273 275 278 282 286 289 293
338 341 329 313 310 316 318 291 273 273 279 287 294 300 302 302 301 300 299 298 296 294 293 291 290 288 286 285 283 281 280 279 278 276 275 273 272 273 274 275 274 274 273 274 276 278 281 283 286
338 329 312 304 307 305 299 292 292 296 289 288 294 299 301 301 299 298 296 295 294 292 290 289 288 286 284 283 281 279 277 276 274 273 271 269 268 269 271 272 273 273 272 273 274 275 276 277 280
320 323 320 315 309 299 296 297 298 299 302 302 301 300 300 299 298 296 294 293 291 290 289 288 286 285 283 281 280 278 276 274 272 271 270 269 267 266 266 267 268 268 269 270 270 271 272 272 275
302 314 314 313 308 298 295 290 290 296 298 299 299 298 297 297 295 294 292 291 290 289 288 286 284 283 281 279 278 276 275 273 272 270 269 268 267 265 264 263 263 264 266 267 267 267 268 268 270
309 316 317 317 314 308 303 293 298 298 298 297 297 297 297 297 296 294 293 292 291 290 289 287 285 282 280 278 276 275 273 272 271 270 269 268 267 266 264 262 260 260 261 263 263 263 264 264 265
Height
5921 5921 5921 5922 5922 5920 5923 5923 5920 5919 5919 5918 5918 5916 5915 5916 5917 5919 5917 5916 5917 5917 5918 5918 5918 5918 5917 5917 5917 5917 5916 5915 5914 5913 5912 5911 5910 5909 5908 5907 5905 5904 5903 5902 5901 5900 5899 5898 5897
5923 5923 5924 5923 5922 5920 5922 5921 5920 5920 5919 5918 5917 5916 5916 5915 5915 5916 5915 5916 5916 5916 5917 5917 5917 5917 5917 5917 5917 5916 5916 5915 5914 5913 5912 5911 5910 5909 5909 5907 5906 5905 5903 5902 5901 5900 5898 5897 5897
5924 5924 5925 5924 5922 5921 5920 5922 5921 5920 5919 5918 5917 5917 5916 5915 5915 5915 5915 5915 5915 5915 5915 5916 5916 5916 5916 5915 5915 5915 5914 5914 5913 5912 5911 5910 5910 5909 5908 5907 5906 5905 5904 5902 5901 5899 5898 5897 5896
5924 5925 5926 5925 5926 5923 5921 5923 5922 5920 5919 5918 5917 5917 5915 5915 5915 5914 5914 5914 5914 5914 5914 5914 5914 5915 5914 5914 5914 5914 5913 5913 5912 5911 5910 5910 5909 5908 5907 5906 5905 5904 5903 5901 5900 5899 5897 5896 5895
5924 5925 5926 5926 5928 5926 5924 5923 5922 5920 5920 5917 5916 5916 5915 5915 5914 5914 5913 5913 5914 5914 5914 5914 5914 5913 5913 5913 5913 5912 5912 5911 5910 5910 5909 5908 5907 5907 5906 5905 5904 5903 5902 5901 5899 5898 5897 5896 5895
5923 5924 5924 5927 5925 5924 5924 5923 5921 5920 5918 5916 5914 5915 5914 5914 5913 5913 5913 5913 5913 5913 5913 5912 5912 5912 5912 5911 5911 5910 5910 5909 5908 5907 5906 5906 5905 5904 5903 5903 5902 5901 5900 5899 5898 5897 5896 5894 5893
5922 5923 5923 5926 5926 5923 5922 5921 5921 5917 5915 5912 5912 5914 5913 5912 5912 5912 5912 5912 5912 5912 5911 5911 5911 5910 5909 5909 5908 5907 5907 5906 5905 5904 5903 5903 5902 5901 5900 5899 5898 5898 5897 5896 5895 5895 5894 5893 5891
5919 5922 5922 5926 5927 5923 5921 5917 5917 5915 5913 5909 5910 5911 5911 5911 5911 5911 5911 5910 5910 5910 5910 5909 5909 5908 5907 5906 5905 5904 5903 5902 5901 5901 5900 5899 5899 5898 5897 5896 5894 5894 5893 5892 5891 5891 5890 5890 5888
5916 5919 5921 5924 5922 5920 5918 5915 5911 5913 5913 5911 5910 5908 5910 5909 5909 5909 5909 5908 5908 5907 5907 5907 5906 5904 5903 5902 5901 5900 5898 5897 5897 5896 5895 5895 5894 5894 5893 5891 5890 5889 5888 5887 5886 5886 5886 5885 5884
5913 5915 5918 5920 5918 5916 5915 5915 5914 5914 5913 5910 5907 5903 5905 5906 5906 5906 5906 5905 5904 5903 5903 5902 5902 5901 5899 5898 5896 5894 5893 5892 5891 5890 5889 5888 5888 5888 5887 5886 5884 5883 5882 5881 5880 5880 5880 5879 5879
5908 5910 5912 5912 5912 5912 5913 5915 5915 5915 5913 5905 5901 5894 5899 5902 5903 5902 5902 5901 5900 5899 5898 5897 5896 5895 5893 5892 5891 5889 5887 5886 5885 5883 5882 5881 5881 5880 5880 5879 5879 5877 5875 5874 5873 5872 5871 5871 5871
5903 5905 5905 5906 5907 5908 5909 5911 5912 5913 5909 5901 5897 5891 5887 5896 5898 5897 5897 5896 5896 5895 5893 5892 5890 5889 5887 5885 5883 5882 5881 5879 5878 5877 5875 5874 5873 5873 5873 5872 5871 5870 5869 5868 5867 5865 5863 5863 5862
5897 5899 5900 5901 5902 5903 5904 5906 5907 5909 5905 5897 5892 5889 5884 5890 5893 5891 5890 5890 5890 5890 5888 5887 5886 5884 5882 5880 5878 5876 5875 5873 5871 5870 5869 5867 5866 5866 5865 5864 5863 5862 5860 5860 5859 5858 5857 5855 5854
5892 5892 5894 5896 5897 5899 5900 5901 5902 5904 5904 5898 5894 5892 5890 5889 5889 5886 5884 5883 5883 5883 5882 5880 5879 5878 5876 5874 5872 5871 5869 5867 5865 5864 5862 5861 5860 5858 5857 5856 5856 5854 5853 5852 5852 5852 5850 5849 5848
5886 5887 5889 5891 5893 5894 5896 5896 5898 5899 5901 5895 5892 5890 5888 5886 5883 5880 5878 5876 5876 5876 5875 5873 5872 5871 5869 5868 5866 5865 5863 5861 5859 5857 5855 5854 5853 5852 5851 5850 5849 5848 5847 5847 5846 5845 5844 5843 5842
5882 5882 5883 5886 5888 5891 5892 5891 5893 5895 5895 5891 5887 5884 5883 5882 5879 5876 5873 5872 5869 5868 5867 5865 5864 5864 5863 5861 5860 5858 5857 5855 5853 5851 5849 5848 5846 5845 5844 5843 5842 5842 5841 5841 5840 5839 5838 5837 5836
5879 5879 5880 5883 5886 5887 5887 5886 5889 5890 5887 5884 5881 5879 5877 5876 5874 5870 5867 5864 5858 5857 5857 5856 5855 5855 5855 5854 5853 5851 5850 5848 5846 5844 5843 5841 5840 5839 5838 5837 5836 5836 5835 5835 5834 5834 5833 5831 5830
5878 5880 5882 5883 5885 5883 5881 5881 5883 5882 5878 5876 5876 5874 5871 5870 5869 5864 5859 5854 5848 5845 5846 5848 5847 5847 5847 5846 5846 5844 5843 5841 5839 5838 5837 5835 5833 5833 5832 5831 5831 5831 5830 5830 5829 5828 5827 5826 5824
5872 5874 5876 5878 5879 5877 5874 5874 5876 5873 5871 5870 5870 5869 5866 5864 5860 5854 5847 5841 5835 5830 5834 5838 5840 5841 5839 5839 5838 5837 5836 5834 5832 5831 5830 5829 5827 5827 5827 5826 5826 5826 5826 5825 5824 5824 5823 5821 5819
5871 5872 5873 5873 5872 5870 5869 5868 5869 5869 5866 5863 5862 5860 5857 5853 5848 5840 5830 5821 5821 5820 5822 5825 5830 5832 5832 5832 5831 5830 5829 5827 5826 5825 5823 5823 5822 5822 5822 5822 5822 5822 5821 5821 5820 5818 5817 5816 5813
5868 5867 5866 5865 5864 5864 5865 5864 5864 5862 5859 5856 5853 5850 5845 5838 5834 5823 5806 5799 5804 5806 5805 5815 5821 5824 5824 5824 5824 5823 5822 5820 5819 5818 5817 5817 5817 5817 5817 5818 5818 5817 5817 5816 5815 5813 5812 5810 5808
5865 5863 5862 5862 5861 5861 5862 5861 5860 5855 5852 5849 5845 5841 5835 5829 5824 5814 5798 5789 5799 5798 5801 5808 5814 5815 5816 5816 5815 5815 5815 5813 5812 5811 5811 5811 5811 5812 5812 5812 5812 5812 5811 5810 5809 5808 5806 5805 5803
5861 5859 5859 5858 5857 5856 5857 5857 5856 5850 5846 5843 5841 5837 5832 5827 5821 5814 5804 5802 5804 5804 5805 5805 5808 5808 5807 5807 5807 5807 5806 5806 5805 5804 5804 5804 5805 5806 5806 5806 5806 5806 5805 5804 5803 5802 5800 5799 5797
5859 5858 5857 5855 5853 5850 5847 5848 5849 5846 5843 5840 5838 5834 5829 5825 5821 5815 5810 5806 5804 5803 5802 5802 5802 5801 5800 5799 5799 5800 5799 5799 5798 5797 5797 5798 5798 5798 5799 5799 5799 5799 5798 5797 5796 5795 5794 5792 5791
5858 5857 5856 5854 5848 5844 5842 5842 5843 5841 5838 5835 5833 5830 5825 5820 5816 5812 5808 5804 5802 5801 5799 5798 5796 5794 5793 5792 5792 5791 5791 5791 5791 5790 5790 5790 5790 5790 5791 5792 5791 5791 5790 5790 5789 5788 5787 5786 5784
5857 5856 5856 5853 5851 5849 5843 5840 5836 5834 5833 5831 5828 5825 5821 5816 5811 5806 5802 5799 5796 5794 5792 5790 5787 5786 5785 5783 5782 5781 5781 5781 5781 5781 5782 5782 5781 5781 5781 5782 5782 5782 5782 5781 5781 5781 5780 5779 5777
5857 5855 5854 5851 5849 5848 5846 5838 5832 5827 5826 5826 5824 5820 5815 5809 5804 5800 5795 5791 5787 5784 5781 5778 5776 5774 5773 5772 5771 5770 5769 5769 5769 5769 5770 5770 5771 5771 5771 5772 5772 5772 5772 5772 5772 5772 5772 5771 5770
5856 5854 5852 5849 5847 5844 5843 5834 5829 5825 5823 5821 5818 5814 5809 5803 5797 5791 5786 5781 5777 5772 5769 5766 5762 5760 5758 5757 5756 5755 5755 5755 5755 5755 5756 5756 5757 5758 5759 5760 5760 5761 5761 5762 5762 5763 5763 5763 5762
5854 5852 5849 5847 5844 5841 5837 5834 5827 5823 5819 5814 5810 5806 5801 5796 5790 5783 5776 5771 5766 5760 5756 5752 5748 5746 5743 5741 5739 5738 5738 5738 5738 5739 5739 5740 5741 5743 5745 5746 5747 5749 5750 5750 5751 5752 5753 5753 5753
5851 5849 5846 5843 5840 5836 5832 5829 5823 5818 5813 5808 5802 5796 5790 5784 5778 5771 5765 5759 5753 5747 5742 5737 5732 5729 5726 5723 5722 5720 5719 5719 5719 5720 5721 5721 5723 5724 5727 5730 5732 5735 5737 5738 5739 5741 5742 5743 5744